{"data":{"norad_id":59933,"epoch":"2026-05-24T16:12:34.181568Z","epoch_age_seconds":106554,"freshness":"FRESH","line1":"1 59933U 24106M   26144.67539562  .00000336  00000+0  21744-4 0  9995","line2":"2 59933  43.0002 263.4125 0001265 266.5813  93.4894 15.27576560112148","mean_motion":15.2757656,"eccentricity":0.0001265,"inclination_deg":43.0002,"raan_deg":263.4125,"arg_perigee_deg":266.5813,"mean_anomaly_deg":93.4894,"bstar":2.1744e-5,"rev_number":11214,"period_min":94.26696099605,"perigee_km":482.19145531234,"apogee_km":483.92733800069,"semimajor_km":6861.1963966565,"source":"CELESTRAK","updated_at":"2026-05-25T13:38:19.123998Z"}}